Погода в Бабушкине

Погода в Бабушкине : погода сейчас, прогноз погоды и архив. Всё, что Вы хотите узнать о погоде в Бабушкине!

Поиск расширенной информации на нашем сайте:

Другие новости

Новости СМИ2

Главная страница сайта

Новости сайта

03.07.2017

Напоминаем, что на нашем специализированном сайте Метеоцентр.Азия вы можете получить высокодетализированные автоматические прогнозы погоды по пунктам России, СНГ и мира в авиационном формате (включающие направление и скорость ветра, видимость, явления погоды, количество и форму облачности, нижнюю и верхнюю границу облачности).

Рекомендуем: укладка плитки под ключ, Стоимость укладки тротуарной плитки Москв

Погода в Бабушкине - сегодня

Время (UTC), дата Ветер
(°,м/с) 
Видим.   Явления Облачность Т
(°С)
Тd
(°С)
f(%) Тe
(°С)
Pmin
(гПа)
dP
(гПа)
Po
(мм)
O2
(г/м3)
Тmin Tmax R s Состояние
почвы
03 18.11.17 320 (СЗ) 20000 м    10/6 600 м кучево-дожд., средняя 
[Cb cap|Ac As]
-1.3 -8.4 58 -5  1029.3  -0.2  728  296           
06 18.11.17 310 (СЗ) 20000 м    9/3 600 м средняя, верхняя 
[Sc|Ac trans|Ci sp]
-0.1 -9.1 51 -2  1027.6  -1.4  727  294           
09 18.11.17 270 (З) 20000 м    9/5 600 м средняя, верхняя 
[Sc|Ac trans|Ci sp]
-0.7 -8.9 54 1026.9  -0.8  727  294           
12 18.11.17 270 (З) 20000 м    9/4 600 м средняя, верхняя 
[Sc|Ac trans|Ci sp]
-3.7 -8.2 71 -6  1027.3  -0.2  727  298    +0.3       
15 18.11.17 270 (З) 20000 м    9/4 600 м средняя, верхняя 
[Sc|Ac trans|Ci sp]
-4.1 -8.1 74 -5  1027.3  0.1  727  298           
18 18.11.17 300 (СЗ) 20000 м    9/4 600 м средняя, верхняя 
[Sc|Ac trans|Ci sp]
-0.7 -5.3 71 -3  1026.3  -0.2  726  294           
21 18.11.17 320 (СЗ) 20000 м    9/5 600 м средняя, верхняя 
[Sc|Ac trans|Ci sp]
-0.2 -5.6 67 -1  1025.8  -0.4  726  293           
00 19.11.17 300 (СЗ) 20000 м    9/4 600 м кучево-дожд., верхняя 
[Cb cap|Ci sp]
-1.2 -5.7 71 -3  1025.7  -0.3  726  294  -4.5      равномерный
сухой снег
100% 
03 19.11.17 290 (З) 20000 м    9/4 600 м кучево-дожд., средняя, верхняя 
[Cb cap|Ac trans|Ci sp]
+0.4 -5.5 65 1025.7  0.3  726  293           
06 19.11.17 320 (СЗ) 20000 м    8/1 600 м верхняя 
[Sc|Ci sp]
+1.7 -5.9 57 +2  1023.8  -1.5  725  291           
09 19.11.17 260 (З) 20000 м    8/0 верхняя 
[Ci sp]
-1.6 -5.7 74 -4  1023.7  -0.8  724  294           
12 19.11.17 280 (З) 20000 м    9/0 средняя, верхняя 
[Ac trans|Ci sp]
-4.8 -9.3 71 -4  1024  -0.4  724  298    +2       
15 19.11.17 270 (З) н/о    н/о 
-4.2 -9.5 66 -8  1023.1  -0.8  724  297           
18 19.11.17 260 (З) 20000 м    9/0 средняя, верхняя 
[Ac trans|Ci sp]
-5.4 -9.7 72 -9  1022  -1.2  723  298           
21 19.11.17 270 (З) 20000 м    9/0 средняя, верхняя 
[Ac trans|Ci sp]
-5.3 -9.8 71 -9  1020.2  -1.7  721  297           
00 20.11.17 270 (З) 20000 м    9/0 средняя, верхняя 
[Ac trans|Ci sp]
-5.2 -9.7 71 -8  1019.5  -0.6  721  297  -5.8      <0.5  сухой снег
50-90% 
03 20.11.17 300 (СЗ) 20000 м    9/3 600 м верхняя 
[Sc|Ci sp]
-0.5 -4.7 73 -1  1019.4  0.9  722  292           
06 20.11.17 300 (СЗ) 9-13{13}  10 км    10/5 600 м кучево-дожд., средняя 
[Cb cap|Ac As]
+0.4 -4 72 -4  1018.8  -0.4  721  291           
09 20.11.17 310 (СЗ) 5{13}  10 км  слаб. ливневой снег  10/5 600 м кучево-дожд., средняя 
[Cb cap|Ac As]
-1.5 -3.2 88 -5  1020.4  1.2  722  293           
12 20.11.17 310 (СЗ) 7-12{13}  10 км  {ливн. осадки}  10/5 600 м кучево-дожд., средняя 
[Cb cap|Ac As]
-0.9 -5.5 71 -5  1021.8  1.4  723  293    +0.4  0.2     
15 20.11.17 310 (СЗ) 8-13{14}  10 км    10/5 600 м кучево-дожд., средняя 
[Cb cap|Ac As]
-1.9 -9.5 56 -7  1023.3  1.2  724  295           
18 20.11.17 310 (СЗ) 9-14{14}  10 км    10/5 600 м кучево-дожд., средняя 
[Cb cap|Ac As]
-2.9 -9.7 59 -8  1024.2  0.6  725  296           
21 20.11.17 310 (СЗ) 8-13{14}  10 км    10/6 600 м кучево-дожд., средняя 
[Cb cap|Ac As]
-4 -10.2 62 -9  1025.7  1.2  725  298           
00 21.11.17 310 (СЗ) 8-13{14}  10 км    10/6 600 м кучево-дожд., средняя 
[Cb cap|Ac As]
-4.1 -10.1 63 -9  1026.6  0.8  726  298  -4.4      равномерный
сухой снег
100% 
03 21.11.17 310 (СЗ) 7-11{14}  10 км    10/8 600 м кучево-дожд., средняя 
[Cb cap|Ac As]
-4.2 -9.9 64 -9  1027.1  0.5  726  298           
Время (UTC), дата Ветер
(°,м/с) 
Видим.   Явления Облачность Т
(°С)
Тd
(°С)
f(%) Тe
(°С)
Pmin
(гПа)
dP
(гПа)
Po
(мм)
O2
(г/м3)
Тmin Tmax R s Состояние
почвы

Для получения пояснительной информации подведите курсор к названию столбца.

ПОГОДА в Бабушкине - архив

Всё, что Вы хотите узнать о погоде в Бабушкине - удобно и подробно!

Выберите нужную дату (начиная с 1 января 2015* года) и нажмите кнопку "Найти".
Будут отображены архивные сводки погоды по пункту Бабушкин, начиная с указанной даты.


Отображать данные в формате CSV (для использования в таблицах Excel)


Внимание! Наш архив погоды предназначен исключительно для личного некоммерческого использования в познавательных целях. Если Вам необходимы официальные справки о состоянии погоды (для производственных, юридических, коммерческих и т.п. целей), обращайтесь в органы Росгидромета.

*Примечание: данная дата относится к архиву по метеостанциям СССР (Россия, СНГ, Балтия).
Архив по метеостанциям Зарубежной Европы и Азии (кроме Китая) хранится 10 дней, по другим регионам земного шара (Китай, Африка, Америка, Австралия, Океания) - 1 день.

Бабушкин - район местоположения метеостанции


Название, широта, долгота, высота метеостанции:
Бабушкин 51.7°ш. 105.9°д. 467 м над ур. моря [Российская Федерация]

Дополнительная информация

В oтличие oт бoльшинства пoгoдных сайтoв мы публикуем пoдрoбную метеoинфoрмацию в детальнoм прoфессиoнальнoм фoрмате.

Характеристики температуры и влажнoсти вoздуха измеряются на высoте 2 м в тени вдали oт зданий и деревьев.
Скoрoсть ветра измеряется на высoте 10 м (на урoвне рoста челoвека скoрoсть ветра ниже в 1.5-2 раза). Если метеoстанция нахoдится в гoрoде или в лесу, тo скoрoсть ветра занижена на 2-4 м/с пo сравнению с oткрытым местoм. Скoрoсть ветра над акватoриями крупных рек и oзёр, а также на вершинах хoлмoв на 2-5 м/с выше, чем в oбычных услoвиях.
Атмoсфернoе давление в разных тoчках местнoсти мoжет значительнo oтличаться oт давления на метеoстанции, в зависимoсти oт услoвий рельефа (при пoдъёме на 10 м давление пoнижается примернo на 1 мм рт.ст.).